Theta_e
329 330 330 328 324 320 316 311 310 311 314 315 315 314 312 312 310 310 310 310 310 311 310 308 308 308 309 310 310 310 308 304
329 329 329 328 327 321 318 313 312 314 315 315 315 315 314 313 311 310 310 310 310 310 309 308 307 310 310 310 310 309 308 302
329 328 328 327 327 323 319 315 311 312 314 315 315 315 314 314 312 310 310 310 310 310 309 308 307 311 311 310 310 309 307 303
330 329 328 328 327 326 321 317 314 312 313 315 315 315 314 314 313 312 310 310 310 309 308 307 308 311 311 310 310 310 309 306
331 330 328 327 327 324 321 317 316 313 313 314 314 314 314 314 313 310 309 310 309 309 308 308 308 310 310 310 310 310 309 307
330 329 327 327 325 323 321 317 316 315 313 314 314 315 314 313 313 312 309 308 309 309 308 307 308 310 310 310 310 309 309 307
331 331 328 328 325 321 320 317 317 317 315 313 313 314 314 313 313 313 311 308 307 308 307 307 308 310 310 310 309 309 309 306
333 332 329 329 327 323 319 317 317 318 317 314 313 312 312 312 313 313 312 310 308 307 307 307 307 310 310 310 309 309 308 305
331 332 329 328 329 328 324 320 317 317 319 317 314 312 312 312 314 314 313 313 311 310 308 307 307 310 310 310 309 309 307 303
330 331 330 329 329 329 329 327 320 317 318 319 316 313 312 312 314 315 314 315 313 312 310 307 308 310 310 310 309 309 307 302
329 328 329 329 328 328 328 328 326 323 319 318 319 319 313 313 314 315 314 316 314 313 312 311 310 310 311 310 310 308 306 300
326 327 328 328 328 328 329 329 327 325 322 319 319 323 316 313 313 314 315 316 316 313 313 313 312 311 312 311 309 308 304 298
324 326 326 327 327 327 328 329 328 327 326 322 320 322 321 314 313 313 316 316 315 314 313 313 313 312 312 311 308 308 301 296
322 324 323 324 325 326 327 329 328 328 327 325 321 320 323 318 313 312 315 316 316 314 314 314 313 314 312 310 308 306 303 294
323 323 322 322 322 324 325 326 328 328 326 326 325 321 322 321 316 312 315 316 315 314 314 314 314 313 312 309 306 305 301 292
323 324 324 323 324 325 326 326 327 327 326 326 326 322 321 321 318 314 315 316 315 314 315 315 313 313 311 309 305 306 298 291
320 323 324 324 323 325 325 325 326 327 327 326 325 324 322 322 320 315 315 315 315 315 316 315 313 313 309 307 304 306 294 291
319 320 322 324 324 324 326 327 328 328 327 327 325 324 321 322 322 318 315 315 315 315 316 315 313 312 310 307 305 301 292 291
320 320 320 321 322 324 325 327 328 327 327 327 326 324 322 322 321 319 316 315 315 315 316 315 313 310 309 306 306 298 291 290
Wind_Speed
24 24 25 23 22 21 17 21 23 24 23 20 18 16 15 13 13 14 13 13 11 10 8 7 4 3 3 4 7 10 10 10
24 24 26 26 26 27 22 24 25 26 27 25 23 21 18 16 14 15 15 15 13 11 9 7 5 3 3 4 7 9 9 7
25 27 25 28 30 31 27 25 28 27 26 24 24 21 20 16 14 16 17 16 14 12 9 7 6 4 5 5 5 8 9 7
28 26 28 29 32 35 34 29 27 27 26 25 25 24 23 21 20 19 19 18 16 13 10 8 6 6 7 7 6 8 9 10
30 28 28 30 31 32 34 31 27 26 26 25 26 27 28 24 20 18 20 19 16 14 12 9 8 7 7 8 9 10 11 12
30 29 24 24 28 30 36 34 29 26 28 27 25 27 24 20 19 19 21 20 18 16 14 11 10 9 9 9 9 11 12 13
33 29 24 24 25 28 34 36 32 28 28 28 29 28 26 24 23 23 21 20 20 19 16 14 12 11 10 11 9 11 13 14
31 33 30 27 28 28 33 37 37 32 29 30 31 29 28 26 25 25 22 20 21 20 17 15 13 12 12 10 10 11 13 14
30 33 34 32 29 28 29 35 39 37 33 33 30 31 30 28 26 25 21 18 18 17 17 17 15 14 12 12 10 12 12 14
27 30 34 33 32 30 29 29 36 39 36 36 32 32 33 31 28 26 22 19 18 16 17 17 17 15 14 14 12 13 13 13
27 27 30 33 32 30 27 28 30 34 39 39 33 32 33 32 30 28 25 22 20 18 18 17 20 18 17 16 14 14 13 12
23 27 29 32 31 31 30 31 32 34 37 39 37 32 34 35 33 30 28 23 22 22 21 18 21 20 19 18 14 14 13 11
23 23 24 27 31 32 32 33 35 35 34 37 39 35 33 36 36 35 31 27 24 24 26 25 23 21 23 20 16 15 13 11
22 21 22 24 27 28 29 31 33 36 35 34 35 37 34 35 37 37 32 29 28 29 30 30 27 25 25 22 18 14 14 11
24 24 25 24 24 25 26 28 30 33 35 35 34 36 36 34 35 36 34 32 30 31 33 32 31 29 27 24 20 15 14 10
19 28 29 28 28 29 28 28 30 28 31 33 32 35 36 33 33 34 33 33 33 32 35 34 35 32 30 25 20 16 15 10
12 23 29 30 31 29 26 28 27 26 26 29 31 33 36 32 31 33 34 33 34 33 35 35 36 35 34 28 22 16 15 11
11 11 16 24 28 26 26 26 23 22 23 24 28 30 33 34 32 32 35 34 34 33 35 36 37 36 32 30 19 17 14 13
14 13 15 18 21 24 26 24 20 19 21 23 25 26 30 32 31 32 34 35 34 33 34 36 37 36 34 24 21 17 15 14
Wind_Direction
218 216 219 220 215 207 206 196 189 188 186 188 192 193 195 203 211 214 219 220 223 233 250 258 283 327 328 339 346 349 352 355
220 219 223 223 223 213 209 201 197 196 195 196 198 202 202 210 212 220 220 219 222 237 244 259 284 309 302 319 342 350 359 356
220 221 220 226 227 220 213 209 207 207 209 210 207 203 207 215 219 221 221 224 226 233 239 256 277 291 297 312 330 343 349 341
221 225 227 231 227 223 218 214 211 212 211 211 205 205 207 211 214 224 221 225 228 231 239 247 252 272 292 303 308 330 341 338
229 230 239 229 228 224 220 219 217 217 214 213 213 210 210 216 220 221 221 224 226 232 240 247 251 266 282 297 305 324 335 338
230 241 240 237 228 224 219 220 219 221 220 220 222 222 225 224 219 220 222 225 229 234 241 249 258 272 282 292 303 321 333 338
237 248 247 237 232 226 221 221 221 223 221 223 227 229 226 217 218 220 222 225 230 233 237 242 253 268 282 292 298 318 332 338
239 241 244 239 229 224 221 222 224 225 225 228 228 231 229 225 224 221 221 224 229 233 239 244 251 261 267 280 292 313 328 337
241 244 245 247 236 227 224 224 225 226 228 230 229 234 229 228 230 226 229 236 238 241 243 244 248 255 266 276 287 305 319 332
241 245 245 247 244 238 232 230 229 228 231 231 229 235 229 229 229 230 233 238 239 242 244 251 253 260 268 268 282 297 309 323
238 243 247 249 251 247 238 237 239 236 232 233 231 240 233 233 231 230 230 234 240 240 241 242 251 253 257 264 278 287 300 317
238 245 251 255 257 255 249 240 238 238 236 232 233 241 235 235 232 231 230 233 242 246 241 247 255 254 254 256 266 281 293 309
241 246 251 256 261 261 255 246 238 241 243 236 234 237 239 235 234 232 232 230 228 241 245 248 249 253 254 254 260 279 282 299
247 241 243 250 256 260 259 252 245 243 245 240 234 234 239 237 234 232 232 234 233 239 242 244 246 250 247 248 254 270 285 284
238 238 238 245 253 258 259 259 254 248 247 244 241 237 239 240 236 233 231 234 233 241 243 246 245 247 245 243 248 261 270 271
242 242 241 246 254 260 262 260 261 255 248 246 245 240 239 240 236 234 233 234 235 241 240 241 241 241 241 241 247 260 261 262
265 251 251 250 254 259 264 263 262 262 254 251 247 242 239 239 237 234 235 232 234 238 236 237 238 238 237 238 242 258 249 262
322 296 270 258 259 262 263 266 265 266 261 255 250 244 239 240 239 235 233 232 235 241 236 235 235 238 238 239 245 248 243 259
334 314 297 282 268 260 255 261 262 265 262 258 255 249 242 240 237 235 232 233 239 243 237 234 232 230 237 241 252 243 243 255